| time (UTC) | temp F | wind direction | speed MPH | gust MPH | rain 1hr in | rain 24hr in | rain mn in | humidity % | barometer mb |
| 20260902003010 | 65 | 190 | 0.0 | 2.0 | 0.00 | 0.03 | 0.03 | 83 | 1020.1 |
| 20260902002507 | 65 | 190 | 0.0 | 2.0 | 0.00 | 0.03 | 0.03 | 83 | 1020.1 |
| 20260902002005 | 65 | 190 | 0.0 | 1.0 | 0.00 | 0.03 | 0.03 | 82 | 1020.2 |
| 20260902001505 | 65 | 190 | 0.0 | 1.0 | 0.00 | 0.03 | 0.03 | 82 | 1020.3 |
| 20260902001005 | 65 | 190 | 0.0 | 2.0 | 0.00 | 0.03 | 0.03 | 81 | 1020.4 |
| 20260902000458 | 65 | 190 | 1.0 | 2.0 | 0.00 | 0.03 | 0.03 | 81 | 1020.3 |
| 20260901235954 | 65 | 190 | 0.0 | 2.0 | 0.00 | 0.03 | 0.03 | 81 | 1020.2 |
| 20260901235452 | 65 | 190 | 1.0 | 2.0 | 0.00 | 0.03 | 0.03 | 81 | 1020.1 |
| 20260901235213 | 65 | 190 | 1.0 | 2.0 | 0.00 | 0.03 | 0.03 | 81 | 1020.1 |
| 20260901234452 | 65 | 190 | 1.0 | 2.0 | 0.00 | 0.03 | 0.03 | 80 | 1020.0 |
| 20260901233950 | 65 | 190 | 0.0 | 3.0 | 0.00 | 0.03 | 0.03 | 81 | 1020.1 |
| 20260901233448 | 65 | 190 | 1.0 | 3.0 | 0.00 | 0.03 | 0.03 | 81 | 1020.0 |
| 20260901232945 | 65 | 191 | 1.0 | 4.0 | 0.00 | 0.03 | 0.03 | 81 | 1020.1 |
| 20260901232444 | 65 | 191 | 0.0 | 4.0 | 0.00 | 0.03 | 0.03 | 82 | 1020.0 |
| 20260901231943 | 65 | 184 | 1.0 | 4.0 | 0.00 | 0.03 | 0.03 | 82 | 1020.0 |
| 20260901231443 | 66 | 181 | 2.0 | 4.0 | 0.00 | 0.03 | 0.03 | 84 | 1020.0 |
| 20260901230941 | 66 | 194 | 0.0 | 2.0 | 0.00 | 0.03 | 0.03 | 85 | 1019.9 |
| 20260901230659 | 66 | 194 | 0.0 | 1.0 | 0.00 | 0.03 | 0.03 | 85 | 1019.8 |
| 20260901230207 | 66 | 194 | 0.0 | 0.0 | 0.00 | 0.03 | 0.03 | 85 | 1019.8 |
| 20260901225923 | 66 | 194 | 0.0 | 2.0 | 0.00 | 0.03 | 0.03 | 84 | 1019.9 |
| 20260901224931 | 67 | 194 | 0.0 | 2.0 | 0.00 | 0.03 | 0.03 | 84 | 1019.8 |
| 20260901224430 | 67 | 194 | 0.0 | 3.0 | 0.00 | 0.03 | 0.03 | 84 | 1019.8 |
| 20260901223929 | 67 | 194 | 1.0 | 3.0 | 0.00 | 0.03 | 0.03 | 83 | 1019.7 |
| 20260901223652 | 67 | 194 | 0.0 | 3.0 | 0.00 | 0.03 | 0.03 | 83 | 1019.8 |
| 20260901222920 | 67 | 194 | 1.0 | 3.0 | 0.00 | 0.03 | 0.03 | 82 | 1019.8 |
| 20260901222419 | 67 | 194 | 0.0 | 3.0 | 0.00 | 0.03 | 0.03 | 82 | 1019.8 |
| 20260901221919 | 67 | 194 | 2.0 | 3.0 | 0.00 | 0.03 | 0.03 | 81 | 1019.9 |
| 20260901221416 | 67 | 198 | 2.0 | 3.0 | 0.00 | 0.03 | 0.03 | 81 | 1020.0 |
| 20260901220915 | 67 | 173 | 1.0 | 2.0 | 0.00 | 0.03 | 0.03 | 82 | 1020.0 |
| 20260901220416 | 67 | 174 | 0.0 | 1.0 | 0.00 | 0.03 | 0.03 | 81 | 1020.0 |
| 20260901215914 | 67 | 174 | 0.0 | 3.0 | 0.00 | 0.03 | 0.03 | 81 | 1019.8 |
| 20260901215414 | 68 | 174 | 1.0 | 3.0 | 0.00 | 0.03 | 0.03 | 80 | 1019.8 |
| 20260901214913 | 68 | 184 | 0.0 | 4.0 | 0.00 | 0.03 | 0.03 | 80 | 1019.8 |
| 20260901214412 | 68 | 184 | 2.0 | 4.0 | 0.00 | 0.03 | 0.03 | 80 | 1020.0 |
| 20260901214357 | 68 | 158 | 1.0 | 3.0 | 0.00 | 0.03 | 0.03 | 80 | 1019.9 |
| 20260901213409 | 68 | 155 | 1.0 | 3.0 | 0.00 | 0.03 | 0.03 | 80 | 1019.9 |
| 20260901212908 | 68 | 155 | 1.0 | 2.0 | 0.00 | 0.03 | 0.03 | 79 | 1019.9 |
| 20260901212400 | 68 | 155 | 0.0 | 1.0 | 0.00 | 0.03 | 0.03 | 79 | 1019.8 |
| 20260901212124 | 68 | 155 | 0.0 | 3.0 | 0.00 | 0.03 | 0.03 | 78 | 1019.8 |
| 20260901211622 | 68 | 155 | 1.0 | 3.0 | 0.00 | 0.03 | 0.03 | 78 | 1019.8 |
| 20260901211121 | 68 | 155 | 2.0 | 3.0 | 0.00 | 0.03 | 0.03 | 78 | 1019.6 |
| 20260901210625 | 68 | 155 | 2.0 | 3.0 | 0.00 | 0.03 | 0.03 | 78 | 1019.6 |
| 20260901205854 | 68 | 153 | 1.0 | 3.0 | 0.00 | 0.03 | 0.03 | 79 | 1019.6 |
| 20260901205353 | 68 | 153 | 2.0 | 3.0 | 0.00 | 0.03 | 0.03 | 78 | 1019.5 |
| 20260901204852 | 68 | 153 | 1.0 | 4.0 | 0.00 | 0.03 | 0.03 | 78 | 1019.5 |
| 20260901204353 | 68 | 152 | 2.0 | 5.0 | 0.00 | 0.03 | 0.03 | 77 | 1019.4 |
| 20260901204114 | 68 | 171 | 2.0 | 5.0 | 0.00 | 0.03 | 0.03 | 78 | 1019.4 |
| 20260901203350 | 69 | 176 | 2.0 | 5.0 | 0.00 | 0.03 | 0.03 | 81 | 1019.3 |
| 20260901202850 | 69 | 189 | 0.0 | 3.0 | 0.00 | 0.03 | 0.03 | 81 | 1019.3 |
| 20260901202350 | 69 | 186 | 0.0 | 5.0 | 0.00 | 0.03 | 0.03 | 81 | 1019.3 |
| 20260901201849 | 69 | 186 | 3.0 | 5.0 | 0.00 | 0.03 | 0.03 | 80 | 1019.2 |
| 20260901201348 | 69 | 188 | 0.0 | 4.0 | 0.00 | 0.03 | 0.03 | 78 | 1019.2 |
| 20260901200848 | 69 | 188 | 1.0 | 4.0 | 0.00 | 0.03 | 0.03 | 77 | 1019.2 |
| 20260901200611 | 69 | 174 | 1.0 | 3.0 | 0.00 | 0.03 | 0.03 | 78 | 1019.2 |
| 20260901195845 | 69 | 169 | 2.0 | 3.0 | 0.00 | 0.03 | 0.03 | 77 | 1019.1 |
| 20260901195346 | 69 | 166 | 1.0 | 5.0 | 0.00 | 0.03 | 0.03 | 78 | 1019.2 |
| 20260901194844 | 69 | 169 | 1.0 | 5.0 | 0.00 | 0.03 | 0.03 | 78 | 1019.1 |
| 20260901194342 | 69 | 170 | 1.0 | 4.0 | 0.00 | 0.03 | 0.03 | 79 | 1019.0 |
| 20260901193840 | 69 | 183 | 2.0 | 4.0 | 0.00 | 0.03 | 0.03 | 78 | 1019.1 |
| 20260901193339 | 69 | 153 | 1.0 | 3.0 | 0.00 | 0.03 | 0.03 | 77 | 1019.2 |
| 20260901192840 | 69 | 152 | 1.0 | 4.0 | 0.00 | 0.03 | 0.03 | 78 | 1019.2 |
| 20260901192339 | 69 | 181 | 1.0 | 4.0 | 0.00 | 0.03 | 0.03 | 80 | 1019.2 |
| 20260901191836 | 69 | 208 | 0.0 | 3.0 | 0.00 | 0.03 | 0.03 | 82 | 1019.1 |
| 20260901191337 | 69 | 209 | 0.0 | 4.0 | 0.00 | 0.03 | 0.03 | 81 | 1019.1 |
| 20260901190835 | 69 | 213 | 2.0 | 4.0 | 0.00 | 0.03 | 0.03 | 79 | 1019.0 |
| 20260901190337 | 69 | 192 | 1.0 | 6.0 | 0.00 | 0.03 | 0.03 | 79 | 1018.9 |
| 20260901185834 | 68 | 193 | 3.0 | 6.0 | 0.00 | 0.03 | 0.03 | 79 | 1018.9 |
| 20260901185327 | 68 | 184 | 4.0 | 6.0 | 0.00 | 0.03 | 0.03 | 80 | 1019.0 |
| 20260901184826 | 69 | 185 | 2.0 | 4.0 | 0.00 | 0.03 | 0.03 | 81 | 1019.1 |
| 20260901184326 | 69 | 186 | 2.0 | 5.0 | 0.00 | 0.03 | 0.03 | 80 | 1019.2 |
| 20260901183824 | 69 | 194 | 2.0 | 6.0 | 0.00 | 0.03 | 0.03 | 81 | 1019.1 |
| 20260901183315 | 69 | 191 | 3.0 | 7.0 | 0.00 | 0.03 | 0.03 | 81 | 1018.9 |
| 20260901182815 | 69 | 195 | 2.0 | 7.0 | 0.00 | 0.03 | 0.03 | 80 | 1018.9 |
| 20260901182315 | 69 | 194 | 3.0 | 8.0 | 0.00 | 0.03 | 0.03 | 79 | 1018.9 |
| 20260901181814 | 69 | 120 | 4.0 | 8.0 | 0.00 | 0.03 | 0.03 | 79 | 1018.8 |
| 20260901181754 | 69 | 158 | 3.0 | 8.0 | 0.00 | 0.03 | 0.03 | 80 | 1018.7 |
| 20260901180814 | 69 | 193 | 3.0 | 8.0 | 0.00 | 0.03 | 0.03 | 79 | 1018.6 |
| 20260901180313 | 69 | 200 | 3.0 | 8.0 | 0.00 | 0.03 | 0.03 | 80 | 1018.6 |
| 20260901175810 | 69 | 194 | 4.0 | 9.0 | 0.00 | 0.03 | 0.03 | 80 | 1018.7 |
| 20260901175310 | 69 | 211 | 4.0 | 9.0 | 0.00 | 0.03 | 0.03 | 81 | 1018.7 |
| 20260901174808 | 69 | 173 | 3.0 | 7.0 | 0.00 | 0.03 | 0.03 | 82 | 1018.7 |
| 20260901174307 | 69 | 183 | 4.0 | 7.0 | 0.00 | 0.03 | 0.03 | 82 | 1018.6 |
| 20260901173812 | 69 | 166 | 3.0 | 6.0 | 0.00 | 0.03 | 0.03 | 82 | 1018.5 |
| 20260901173527 | 70 | 200 | 2.0 | 6.0 | 0.00 | 0.03 | 0.03 | 82 | 1018.5 |
| 20260901172804 | 70 | 201 | 1.0 | 3.0 | 0.00 | 0.03 | 0.03 | 81 | 1018.6 |
| 20260901172308 | 69 | 199 | 1.0 | 3.0 | 0.00 | 0.03 | 0.03 | 80 | 1018.8 |
| 20260901171803 | 69 | 191 | 1.0 | 3.0 | 0.00 | 0.03 | 0.03 | 79 | 1018.9 |
| 20260901171535 | 69 | 195 | 1.0 | 4.0 | 0.00 | 0.03 | 0.03 | 79 | 1019.0 |
| 20260901170803 | 68 | 194 | 1.0 | 4.0 | 0.00 | 0.03 | 0.03 | 80 | 1019.1 |
| 20260901170301 | 68 | 169 | 2.0 | 4.0 | 0.00 | 0.03 | 0.03 | 83 | 1019.1 |
| 20260901165805 | 69 | 200 | 1.0 | 3.0 | 0.00 | 0.03 | 0.03 | 84 | 1019.0 |
| 20260901165320 | 69 | 208 | 0.0 | 3.0 | 0.00 | 0.03 | 0.03 | 86 | 1018.9 |
| 20260901164810 | 69 | 211 | 1.0 | 3.0 | 0.00 | 0.03 | 0.03 | 85 | 1018.8 |
| 20260901164256 | 69 | 210 | 1.0 | 3.0 | 0.00 | 0.03 | 0.03 | 86 | 1018.7 |
| 20260901163753 | 70 | 219 | 1.0 | 3.0 | 0.00 | 0.03 | 0.03 | 87 | 1018.6 |
| 20260901163300 | 70 | 202 | 1.0 | 3.0 | 0.00 | 0.03 | 0.03 | 87 | 1018.6 |
| 20260901163019 | 70 | 323 | 1.0 | 3.0 | 0.00 | 0.03 | 0.03 | 86 | 1018.7 |
| 20260901162246 | 70 | 232 | 1.0 | 3.0 | 0.00 | 0.03 | 0.03 | 86 | 1018.8 |
| 20260901161745 | 71 | 314 | 1.0 | 3.0 | 0.00 | 0.03 | 0.03 | 86 | 1018.8 |
| 20260901161249 | 71 | 165 | 1.0 | 3.0 | 0.00 | 0.03 | 0.03 | 86 | 1018.8 |
| 20260901160744 | 71 | 203 | 1.0 | 3.0 | 0.00 | 0.03 | 0.03 | 86 | 1018.9 |
| 20260901160539 | 70 | 115 | 1.0 | 3.0 | 0.00 | 0.03 | 0.03 | 86 | 1018.9 |
| 20260901160010 | 70 | 146 | 1.0 | 3.0 | 0.00 | 0.03 | 0.03 | 87 | 1018.9 |
| 20260901155754 | 70 | 146 | 1.0 | 3.0 | 0.00 | 0.03 | 0.03 | 87 | 1018.9 |
| 20260901155243 | 70 | 168 | 1.0 | 3.0 | 0.00 | 0.03 | 0.03 | 87 | 1019.0 |
| 20260901154740 | 70 | 172 | 1.0 | 3.0 | 0.00 | 0.03 | 0.03 | 88 | 1019.1 |
| 20260901154239 | 69 | 172 | 1.0 | 3.0 | 0.00 | 0.03 | 0.03 | 88 | 1019.1 |
| 20260901153738 | 69 | 184 | 0.0 | 3.0 | 0.00 | 0.03 | 0.03 | 89 | 1019.1 |
| 20260901153246 | 69 | 184 | 0.0 | 5.0 | 0.00 | 0.03 | 0.03 | 89 | 1019.1 |
| 20260901153003 | 69 | 183 | 2.0 | 5.0 | 0.00 | 0.03 | 0.03 | 89 | 1019.0 |
| 20260901152500 | 69 | 148 | 1.0 | 3.0 | 0.00 | 0.03 | 0.03 | 89 | 1019.0 |
| 20260901151949 | 68 | 139 | 2.0 | 3.0 | 0.00 | 0.03 | 0.03 | 89 | 1019.0 |
| 20260901151230 | 68 | 58 | 0.0 | 2.0 | 0.00 | 0.03 | 0.03 | 89 | 1019.0 |
| 20260901150949 | 68 | 58 | 0.0 | 2.0 | 0.00 | 0.03 | 0.03 | 89 | 1019.2 |
| 20260901150215 | 68 | 55 | 0.0 | 2.0 | 0.00 | 0.03 | 0.03 | 89 | 1019.2 |
| 20260901145709 | 68 | 55 | 0.0 | 4.0 | 0.00 | 0.03 | 0.03 | 89 | 1019.2 |
| 20260901145208 | 68 | 55 | 2.0 | 4.0 | 0.01 | 0.03 | 0.03 | 89 | 1019.3 |
| 20260901144706 | 68 | 273 | 1.0 | 2.0 | 0.01 | 0.03 | 0.03 | 90 | 1019.4 |
| 20260901144205 | 67 | 219 | 0.0 | 3.0 | 0.01 | 0.03 | 0.03 | 89 | 1019.3 |
| 20260901144139 | 68 | 219 | 0.0 | 3.0 | 0.01 | 0.03 | 0.03 | 89 | 1019.3 |
| 20260901143202 | 68 | 222 | 1.0 | 3.0 | 0.02 | 0.03 | 0.03 | 90 | 1019.3 |
| 20260901142701 | 68 | 218 | 0.0 | 0.0 | 0.02 | 0.03 | 0.03 | 90 | 1019.2 |
| 20260901142201 | 68 | 218 | 0.0 | 0.0 | 0.03 | 0.03 | 0.03 | 89 | 1019.3 |
| 20260901141648 | 68 | 218 | 0.0 | 0.0 | 0.03 | 0.03 | 0.03 | 89 | 1019.3 |
| 20260901141407 | 67 | 218 | 0.0 | 0.0 | 0.03 | 0.03 | 0.03 | 89 | 1019.4 |
| 20260901140644 | 67 | 218 | 0.0 | 0.0 | 0.03 | 0.03 | 0.03 | 89 | 1019.6 |
| 20260901140145 | 67 | 218 | 0.0 | 0.0 | 0.03 | 0.03 | 0.03 | 89 | 1019.5 |
| 20260901135903 | 67 | 218 | 0.0 | 0.0 | 0.03 | 0.03 | 0.03 | 89 | 1019.3 |
| 20260901135141 | 67 | 218 | 0.0 | 0.0 | 0.02 | 0.02 | 0.02 | 89 | 1019.4 |
| 20260901134643 | 67 | 218 | 0.0 | 0.0 | 0.02 | 0.02 | 0.02 | 89 | 1019.6 |
| 20260901134143 | 67 | 218 | 0.0 | 0.0 | 0.02 | 0.02 | 0.02 | 89 | 1019.4 |
| 20260901134137 | 68 | 218 | 0.0 | 0.0 | 0.02 | 0.02 | 0.02 | 88 | 1019.4 |
| 20260901133143 | 68 | 218 | 0.0 | 0.0 | 0.01 | 0.01 | 0.01 | 88 | 1019.5 |
| 20260901132640 | 68 | 218 | 0.0 | 0.0 | 0.01 | 0.01 | 0.01 | 88 | 1019.5 |
| 20260901132142 | 67 | 218 | 0.0 | 0.0 | 0.00 | 0.00 | 0.00 | 88 | 1019.5 |
| 20260901131643 | 67 | 218 | 0.0 | 0.0 | 0.00 | 0.00 | 0.00 | 88 | 1019.6 |
| 20260901131141 | 67 | 218 | 0.0 | 0.0 | 0.00 | 0.00 | 0.00 | 88 | 1019.4 |
| 20260901130639 | 67 | 218 | 0.0 | 0.0 | 0.00 | 0.00 | 0.00 | 88 | 1019.3 |
| 20260901130130 | 67 | 218 | 0.0 | 0.0 | 0.00 | 0.00 | 0.00 | 88 | 1019.3 |
| 20260901125853 | 67 | 218 | 0.0 | 0.0 | 0.00 | 0.00 | 0.00 | 88 | 1019.3 |
| 20260901125129 | 67 | 218 | 0.0 | 0.0 | 0.00 | 0.00 | 0.00 | 88 | 1019.2 |
| 20260901124610 | 67 | 218 | 0.0 | 0.0 | 0.00 | 0.00 | 0.00 | 88 | 1019.1 |
| 20260901124100 | 67 | 218 | 0.0 | 0.0 | 0.00 | 0.00 | 0.00 | 88 | 1019.2 |
| 20260901123601 | 67 | 218 | 0.0 | 0.0 | 0.00 | 0.00 | 0.00 | 88 | 1019.3 |
| 20260901123059 | 67 | 218 | 0.0 | 0.0 | 0.00 | 0.00 | 0.00 | 88 | 1019.4 |
| 20260901122559 | 67 | 218 | 0.0 | 0.0 | 0.00 | 0.00 | 0.00 | 88 | 1019.3 |
| 20260901122059 | 67 | 218 | 0.0 | 0.0 | 0.00 | 0.00 | 0.00 | 88 | 1019.3 |
| 20260901121558 | 67 | 218 | 0.0 | 0.0 | 0.00 | 0.00 | 0.00 | 88 | 1019.3 |
| 20260901121056 | 67 | 218 | 0.0 | 0.0 | 0.00 | 0.00 | 0.00 | 88 | 1019.2 |
| 20260901120556 | 67 | 218 | 0.0 | 0.0 | 0.00 | 0.00 | 0.00 | 88 | 1019.1 |
| 20260901120056 | 67 | 218 | 0.0 | 0.0 | 0.00 | 0.00 | 0.00 | 88 | 1019.1 |
| 20260901115554 | 67 | 218 | 0.0 | 0.0 | 0.00 | 0.00 | 0.00 | 88 | 1019.0 |
| 20260901115052 | 67 | 218 | 0.0 | 0.0 | 0.00 | 0.00 | 0.00 | 89 | 1019.1 |
| 20260901114552 | 67 | 218 | 0.0 | 0.0 | 0.00 | 0.00 | 0.00 | 89 | 1019.2 |
| 20260901114314 | 67 | 218 | 0.0 | 0.0 | 0.00 | 0.00 | 0.00 | 89 | 1019.1 |
| 20260901113539 | 67 | 218 | 0.0 | 0.0 | 0.00 | 0.00 | 0.00 | 89 | 1019.0 |
| 20260901113025 | 67 | 218 | 0.0 | 0.0 | 0.00 | 0.00 | 0.00 | 89 | 1019.0 |
| 20260901112523 | 67 | 218 | 0.0 | 0.0 | 0.00 | 0.00 | 0.00 | 89 | 1018.9 |
| 20260901112022 | 67 | 218 | 0.0 | 0.0 | 0.00 | 0.00 | 0.00 | 89 | 1018.9 |
| 20260901111521 | 67 | 218 | 0.0 | 0.0 | 0.00 | 0.00 | 0.00 | 89 | 1018.9 |
| 20260901111022 | 66 | 218 | 0.0 | 0.0 | 0.00 | 0.00 | 0.00 | 89 | 1018.8 |
| 20260901110740 | 66 | 218 | 0.0 | 0.0 | 0.00 | 0.00 | 0.00 | 89 | 1018.8 |
| 20260901110249 | 66 | 218 | 0.0 | 0.0 | 0.00 | 0.00 | 0.00 | 89 | 1018.7 |
| 20260901105513 | 66 | 218 | 0.0 | 0.0 | 0.00 | 0.00 | 0.00 | 89 | 1018.8 |
| 20260901105011 | 66 | 218 | 0.0 | 0.0 | 0.00 | 0.00 | 0.00 | 89 | 1018.7 |
| 20260901104512 | 66 | 218 | 0.0 | 0.0 | 0.00 | 0.00 | 0.00 | 89 | 1018.7 |
| 20260901104010 | 66 | 218 | 0.0 | 0.0 | 0.00 | 0.00 | 0.00 | 89 | 1018.7 |
| 20260901103504 | 66 | 218 | 0.0 | 0.0 | 0.00 | 0.00 | 0.00 | 89 | 1018.7 |
| 20260901102956 | 66 | 218 | 0.0 | 0.0 | 0.00 | 0.00 | 0.00 | 88 | 1018.7 |
| 20260901102455 | 66 | 218 | 0.0 | 0.0 | 0.00 | 0.00 | 0.00 | 88 | 1018.6 |
| 20260901101943 | 66 | 218 | 0.0 | 0.0 | 0.00 | 0.00 | 0.00 | 88 | 1018.6 |
| 20260901101442 | 66 | 218 | 0.0 | 0.0 | 0.00 | 0.00 | 0.00 | 88 | 1018.5 |
| 20260901100933 | 66 | 218 | 0.0 | 0.0 | 0.00 | 0.00 | 0.00 | 88 | 1018.5 |
| 20260901100424 | 66 | 218 | 0.0 | 0.0 | 0.00 | 0.00 | 0.00 | 88 | 1018.6 |
| 20260901095925 | 66 | 218 | 0.0 | 0.0 | 0.00 | 0.00 | 0.00 | 88 | 1018.5 |
| 20260901095411 | 66 | 218 | 0.0 | 0.0 | 0.00 | 0.00 | 0.00 | 88 | 1018.5 |
| 20260901094902 | 66 | 218 | 0.0 | 0.0 | 0.00 | 0.00 | 0.00 | 88 | 1018.5 |
| 20260901094625 | 66 | 218 | 0.0 | 0.0 | 0.00 | 0.00 | 0.00 | 88 | 1018.4 |
| 20260901093848 | 66 | 218 | 0.0 | 0.0 | 0.00 | 0.00 | 0.00 | 88 | 1018.4 |
| 20260901093349 | 66 | 218 | 0.0 | 0.0 | 0.00 | 0.00 | 0.00 | 88 | 1018.5 |
| 20260901093108 | 66 | 218 | 0.0 | 0.0 | 0.00 | 0.00 | 0.00 | 88 | 1018.5 |
| 20260901092333 | 66 | 218 | 0.0 | 0.0 | 0.00 | 0.00 | 0.00 | 88 | 1018.6 |
| 20260901091833 | 66 | 218 | 0.0 | 0.0 | 0.00 | 0.00 | 0.00 | 88 | 1018.6 |
| 20260901091333 | 66 | 218 | 0.0 | 0.0 | 0.00 | 0.00 | 0.00 | 88 | 1018.6 |
| 20260901090831 | 66 | 218 | 0.0 | 0.0 | 0.00 | 0.00 | 0.00 | 88 | 1018.5 |
| 20260901090321 | 66 | 218 | 0.0 | 0.0 | 0.00 | 0.00 | 0.00 | 88 | 1018.6 |
| 20260901085821 | 66 | 218 | 0.0 | 0.0 | 0.00 | 0.00 | 0.00 | 87 | 1018.6 |
| 20260901085318 | 66 | 218 | 0.0 | 0.0 | 0.00 | 0.00 | 0.00 | 87 | 1018.5 |
| 20260901084818 | 66 | 218 | 0.0 | 0.0 | 0.00 | 0.00 | 0.00 | 87 | 1018.7 |
| 20260901084317 | 67 | 218 | 0.0 | 0.0 | 0.00 | 0.00 | 0.00 | 87 | 1018.7 |
| 20260901083815 | 67 | 218 | 0.0 | 0.0 | 0.00 | 0.00 | 0.00 | 87 | 1018.7 |
| 20260901083315 | 67 | 218 | 0.0 | 0.0 | 0.00 | 0.00 | 0.00 | 87 | 1018.8 |
| 20260901082800 | 67 | 218 | 0.0 | 0.0 | 0.00 | 0.00 | 0.00 | 87 | 1018.8 |
| 20260901082250 | 67 | 218 | 0.0 | 0.0 | 0.00 | 0.00 | 0.00 | 87 | 1018.8 |
| 20260901081750 | 67 | 218 | 0.0 | 0.0 | 0.00 | 0.00 | 0.00 | 87 | 1018.9 |
| 20260901081249 | 67 | 218 | 0.0 | 0.0 | 0.00 | 0.00 | 0.00 | 87 | 1019.0 |
| 20260901080749 | 67 | 218 | 0.0 | 0.0 | 0.00 | 0.00 | 0.00 | 87 | 1019.0 |
| 20260901080247 | 67 | 218 | 0.0 | 0.0 | 0.00 | 0.00 | 0.00 | 87 | 1019.0 |
| 20260901075747 | 67 | 218 | 0.0 | 0.0 | 0.00 | 0.00 | 0.00 | 87 | 1019.1 |
| 20260901075509 | 67 | 218 | 0.0 | 0.0 | 0.00 | 0.00 | 0.00 | 87 | 1019.0 |
| 20260901074745 | 67 | 218 | 0.0 | 1.0 | 0.00 | 0.00 | 0.00 | 87 | 1019.0 |
| 20260901074236 | 67 | 218 | 0.0 | 1.0 | 0.00 | 0.00 | 0.00 | 87 | 1019.1 |
| 20260901073737 | 66 | 218 | 0.0 | 1.0 | 0.00 | 0.00 | 0.00 | 87 | 1019.1 |
| 20260901073236 | 66 | 218 | 0.0 | 0.0 | 0.00 | 0.00 | 0.00 | 87 | 1019.2 |
| 20260901072728 | 66 | 218 | 0.0 | 1.0 | 0.00 | 0.00 | 0.00 | 87 | 1019.2 |
| 20260901072227 | 66 | 218 | 0.0 | 1.0 | 0.00 | 0.00 | 0.00 | 87 | 1019.1 |
| 20260901071727 | 66 | 218 | 0.0 | 1.0 | 0.00 | 0.00 | 0.00 | 87 | 1019.2 |
| 20260901071219 | 66 | 218 | 0.0 | 0.0 | 0.00 | 0.00 | 0.00 | 87 | 1019.2 |
| 20260901070707 | 67 | 218 | 0.0 | 0.0 | 0.00 | 0.00 | 0.00 | 87 | 1019.2 |
| 20260901070158 | 66 | 218 | 0.0 | 0.0 | 0.00 | 0.00 | 0.00 | 87 | 1019.2 |
| 20260901065650 | 67 | 218 | 0.0 | 0.0 | 0.00 | 0.00 | 0.00 | 87 | 1019.3 |
| 20260901065149 | 67 | 218 | 0.0 | 1.0 | 0.00 | 0.00 | 0.00 | 87 | 1019.3 |
| 20260901064648 | 67 | 218 | 0.0 | 3.0 | 0.00 | 0.00 | 0.00 | 87 | 1019.4 |
| 20260901064140 | 67 | 218 | 1.0 | 3.0 | 0.00 | 0.00 | 0.00 | 87 | 1019.4 |
| 20260901063638 | 67 | 231 | 1.0 | 2.0 | 0.00 | 0.00 | 0.00 | 87 | 1019.4 |
| 20260901063138 | 67 | 277 | 0.0 | 1.0 | 0.00 | 0.00 | 0.00 | 87 | 1019.4 |
| 20260901062630 | 67 | 277 | 0.0 | 1.0 | 0.00 | 0.00 | 0.00 | 86 | 1019.4 |
| 20260901062118 | 67 | 277 | 0.0 | 2.0 | 0.00 | 0.00 | 0.00 | 86 | 1019.3 |
| 20260901061616 | 67 | 277 | 0.0 | 3.0 | 0.00 | 0.00 | 0.00 | 86 | 1019.5 |
| 20260901061055 | 67 | 277 | 1.0 | 3.0 | 0.00 | 0.00 | 0.00 | 86 | 1019.4 |
| 20260901060548 | 67 | 233 | 1.0 | 4.0 | 0.00 | 0.00 | 0.00 | 86 | 1019.4 |
| 20260901060047 | 67 | 351 | 1.0 | 4.0 | 0.00 | 0.00 | 0.00 | 86 | 1019.4 |
| 20260901055545 | 67 | 348 | 2.0 | 3.0 | 0.00 | 0.00 | 0.00 | 87 | 1019.3 |
| 20260901055312 | 67 | 79 | 0.0 | 3.0 | 0.00 | 0.00 | 0.00 | 87 | 1019.3 |
| 20260901054544 | 67 | 80 | 1.0 | 3.0 | 0.00 | 0.00 | 0.00 | 86 | 1019.3 |
| 20260901054044 | 67 | 32 | 0.0 | 2.0 | 0.00 | 0.00 | 0.00 | 86 | 1019.3 |
| 20260901053544 | 67 | 36 | 0.0 | 3.0 | 0.00 | 0.00 | 0.00 | 86 | 1019.4 |
| 20260901053040 | 67 | 36 | 1.0 | 3.0 | 0.00 | 0.00 | 0.00 | 86 | 1019.3 |
| 20260901052541 | 67 | 143 | 0.0 | 2.0 | 0.00 | 0.00 | 0.00 | 86 | 1019.5 |
| 20260901052040 | 67 | 143 | 0.0 | 1.0 | 0.00 | 0.00 | 0.00 | 86 | 1019.5 |
| 20260901051531 | 67 | 143 | 0.0 | 2.0 | 0.00 | 0.00 | 0.00 | 86 | 1019.5 |
| 20260901051030 | 67 | 143 | 0.0 | 3.0 | 0.00 | 0.00 | 0.00 | 86 | 1019.5 |
| 20260901050530 | 67 | 143 | 0.0 | 3.0 | 0.00 | 0.00 | 0.00 | 86 | 1019.6 |
| 20260901050030 | 67 | 174 | 0.0 | 2.0 | 0.00 | 0.00 | 0.00 | 86 | 1019.7 |
| 20260901045530 | 67 | 174 | 0.0 | 2.0 | 0.00 | 0.01 | 0.00 | 86 | 1019.4 |
| 20260901045030 | 67 | 174 | 0.0 | 2.0 | 0.00 | 0.01 | 0.00 | 86 | 1019.5 |
| 20260901044523 | 67 | 174 | 0.0 | 2.0 | 0.00 | 0.01 | 0.00 | 86 | 1019.5 |
| 20260901044013 | 67 | 188 | 0.0 | 1.0 | 0.00 | 0.01 | 0.00 | 86 | 1019.6 |
| 20260901043513 | 67 | 188 | 0.0 | 2.0 | 0.00 | 0.01 | 0.00 | 86 | 1019.6 |
| 20260901043011 | 66 | 188 | 0.0 | 3.0 | 0.00 | 0.01 | 0.00 | 86 | 1019.7 |
| 20260901042512 | 66 | 188 | 1.0 | 4.0 | 0.00 | 0.01 | 0.00 | 86 | 1019.7 |
| 20260901042005 | 66 | 187 | 1.0 | 4.0 | 0.00 | 0.01 | 0.00 | 86 | 1019.7 |
| 20260901041457 | 66 | 205 | 0.0 | 3.0 | 0.00 | 0.01 | 0.00 | 86 | 1019.8 |
| 20260901040957 | 66 | 205 | 0.0 | 2.0 | 0.00 | 0.01 | 0.00 | 87 | 1019.8 |
| 20260901040456 | 66 | 205 | 0.0 | 2.0 | 0.00 | 0.01 | 0.00 | 87 | 1019.8 |
| 20260901040220 | 66 | 252 | 0.0 | 2.0 | 0.00 | 0.01 | 0.01 | 87 | 1019.8 |
| 20260901035447 | 66 | 255 | 0.0 | 2.0 | 0.00 | 0.02 | 0.01 | 87 | 1019.7 |
| 20260901034946 | 66 | 200 | 0.0 | 2.0 | 0.00 | 0.02 | 0.01 | 87 | 1019.8 |
| 20260901034657 | 65 | 205 | 0.0 | 2.0 | 0.00 | 0.03 | 0.01 | 87 | 1019.8 |
| 20260901034542 | 66 | 205 | 0.0 | 2.0 | 0.00 | 0.02 | 0.01 | 87 | 1019.8 |
| 20260901033445 | 65 | 214 | 0.0 | 1.0 | 0.00 | 0.04 | 0.01 | 87 | 1019.8 |
| 20260901032943 | 65 | 214 | 0.0 | 1.0 | 0.00 | 0.04 | 0.01 | 87 | 1019.8 |
| 20260901032703 | 65 | 214 | 0.0 | 2.0 | 0.00 | 0.04 | 0.01 | 87 | 1019.8 |
| 20260901031943 | 65 | 214 | 0.0 | 2.0 | 0.00 | 0.04 | 0.01 | 87 | 1019.8 |
| 20260901031443 | 65 | 214 | 0.0 | 1.0 | 0.00 | 0.04 | 0.01 | 87 | 1019.7 |
| 20260901030942 | 65 | 220 | 0.0 | 1.0 | 0.00 | 0.04 | 0.01 | 87 | 1019.9 |
| 20260901030440 | 65 | 220 | 0.0 | 1.0 | 0.00 | 0.04 | 0.01 | 87 | 1019.8 |
| 20260901030211 | 65 | 220 | 0.0 | 1.0 | 0.00 | 0.04 | 0.01 | 87 | 1019.9 |
| 20260901025437 | 65 | 220 | 0.0 | 1.0 | 0.00 | 0.04 | 0.01 | 87 | 1019.8 |
| 20260901024939 | 65 | 220 | 0.0 | 3.0 | 0.00 | 0.04 | 0.01 | 87 | 1019.7 |
| 20260901024438 | 66 | 220 | 1.0 | 3.0 | 0.00 | 0.04 | 0.01 | 87 | 1019.8 |
| 20260901023936 | 66 | 220 | 0.0 | 3.0 | 0.00 | 0.04 | 0.01 | 87 | 1019.8 |
| 20260901023437 | 66 | 220 | 1.0 | 3.0 | 0.00 | 0.04 | 0.01 | 87 | 1019.8 |
| 20260901023153 | 66 | 188 | 0.0 | 2.0 | 0.00 | 0.04 | 0.01 | 87 | 1019.8 |
| 20260901022436 | 67 | 188 | 0.0 | 2.0 | 0.00 | 0.04 | 0.01 | 87 | 1019.8 |
| 20260901022140 | 67 | 188 | 0.0 | 1.0 | 0.00 | 0.04 | 0.01 | 86 | 1019.9 |
| 20260901021419 | 67 | 188 | 0.0 | 2.0 | 0.00 | 0.04 | 0.01 | 86 | 1020.0 |
| 20260901020920 | 67 | 188 | 0.0 | 3.0 | 0.00 | 0.04 | 0.01 | 86 | 1019.9 |
| 20260901020418 | 67 | 188 | 1.0 | 3.0 | 0.00 | 0.04 | 0.01 | 86 | 1019.9 |
| 20260901015917 | 67 | 188 | 0.0 | 1.0 | 0.00 | 0.04 | 0.01 | 86 | 1019.9 |
| 20260901015644 | 67 | 188 | 0.0 | 3.0 | 0.00 | 0.04 | 0.01 | 86 | 1020.0 |
| 20260901014917 | 67 | 188 | 1.0 | 3.0 | 0.00 | 0.04 | 0.01 | 86 | 1020.1 |
| 20260901014418 | 67 | 240 | 0.0 | 3.0 | 0.00 | 0.04 | 0.01 | 86 | 1020.1 |
| 20260901013908 | 67 | 242 | 0.0 | 3.0 | 0.00 | 0.04 | 0.01 | 85 | 1020.0 |
| 20260901013407 | 67 | 175 | 1.0 | 3.0 | 0.00 | 0.04 | 0.01 | 85 | 1020.0 |
| 20260901012900 | 67 | 175 | 1.0 | 4.0 | 0.00 | 0.04 | 0.01 | 85 | 1020.0 |
| 20260901012352 | 67 | 173 | 1.0 | 4.0 | 0.00 | 0.04 | 0.01 | 85 | 1020.0 |
| 20260901011851 | 67 | 183 | 2.0 | 4.0 | 0.00 | 0.04 | 0.01 | 85 | 1019.9 |
| 20260901011351 | 67 | 203 | 1.0 | 4.0 | 0.00 | 0.04 | 0.01 | 84 | 1020.0 |
| 20260901011110 | 67 | 179 | 2.0 | 3.0 | 0.00 | 0.04 | 0.01 | 84 | 1020.0 |
| 20260901010350 | 67 | 181 | 0.0 | 3.0 | 0.00 | 0.04 | 0.01 | 84 | 1019.9 |
| 20260901005850 | 67 | 186 | 0.0 | 3.0 | 0.00 | 0.04 | 0.01 | 84 | 1019.9 |
| 20260901005349 | 67 | 179 | 1.0 | 4.0 | 0.00 | 0.04 | 0.01 | 84 | 1019.9 |
| 20260901004848 | 67 | 195 | 0.0 | 5.0 | 0.00 | 0.04 | 0.01 | 84 | 1019.9 |
| 20260901004346 | 67 | 181 | 2.0 | 6.0 | 0.00 | 0.04 | 0.01 | 83 | 1019.9 |
| 20260901003844 | 67 | 201 | 2.0 | 6.0 | 0.00 | 0.04 | 0.01 | 83 | 1019.9 |
| 20260901003345 | 67 | 190 | 2.0 | 5.0 | 0.00 | 0.04 | 0.01 | 83 | 1019.9 |